iso_date,Year,Hour,Min,DOY,POS_DOY,Lat,Lon,BP,Ts,Ta,has_bp,has_ts,has_ta,BuoyID,Buoy_Type,Buoy_Owner,Logistics,Hemisphere
2021-11-23T16:00:02Z,2021,16,0,327.6667,327.6667,61.883,-66.823,987.9,0.09,-999.0,yes,yes,no,300234068440210,BD2GHI,AOML,UNKNOWN,North
2021-11-23T16:59:57Z,2021,17,0,327.7083,327.7083,61.884,-66.813,987.3,0.09,-999.0,yes,yes,no,300234068440210,BD2GHI,AOML,UNKNOWN,North
2021-11-23T18:00:00Z,2021,18,0,327.75,327.75,61.883,-66.782,987.2,0.08,-999.0,yes,yes,no,300234068440210,BD2GHI,AOML,UNKNOWN,North
2021-11-23T19:03:56Z,2021,19,4,327.7944,327.7944,61.874,-66.733,987.1,0.07,-999.0,yes,yes,no,300234068440210,BD2GHI,AOML,UNKNOWN,North
2021-11-23T20:01:58Z,2021,20,2,327.8347,327.8347,61.871,-66.691,987.1,0.07,-999.0,yes,yes,no,300234068440210,BD2GHI,AOML,UNKNOWN,North
2021-11-23T21:00:00Z,2021,21,0,327.875,327.875,61.863,-66.656,988.0,0.07,-999.0,yes,yes,no,300234068440210,BD2GHI,AOML,UNKNOWN,North
2021-11-23T22:01:03Z,2021,22,1,327.9174,327.9174,61.859,-66.64,989.6,0.07,-999.0,yes,yes,no,300234068440210,BD2GHI,AOML,UNKNOWN,North
2021-11-23T23:00:57Z,2021,23,1,327.959,327.959,61.86,-66.647,991.6,0.07,-999.0,yes,yes,no,300234068440210,BD2GHI,AOML,UNKNOWN,North
2021-11-24T00:02:00Z,2021,0,2,328.0014,328.0014,61.865,-66.667,993.3,0.07,-999.0,yes,yes,no,300234068440210,BD2GHI,AOML,UNKNOWN,North
2021-11-24T01:00:02Z,2021,1,0,328.0417,328.0417,61.872,-66.7,994.8,0.07,-999.0,yes,yes,no,300234068440210,BD2GHI,AOML,UNKNOWN,North
2021-11-24T01:59:57Z,2021,2,0,328.0833,328.0833,61.879,-66.735,996.4,0.07,-999.0,yes,yes,no,300234068440210,BD2GHI,AOML,UNKNOWN,North
2021-11-24T03:00:00Z,2021,3,0,328.125,328.125,61.888,-66.758,997.8,0.07,-999.0,yes,yes,no,300234068440210,BD2GHI,AOML,UNKNOWN,North
2021-11-24T04:01:03Z,2021,4,1,328.1674,328.1674,61.89,-66.758,1000.0,0.07,-999.0,yes,yes,no,300234068440210,BD2GHI,AOML,UNKNOWN,North
2021-11-24T04:59:57Z,2021,5,0,328.2083,328.2083,61.893,-66.736,1002.5,0.06,-999.0,yes,yes,no,300234068440210,BD2GHI,AOML,UNKNOWN,North
2021-11-24T06:01:00Z,2021,6,1,328.2507,328.2507,61.884,-66.698,1004.5,0.06,-999.0,yes,yes,no,300234068440210,BD2GHI,AOML,UNKNOWN,North
2021-11-24T07:00:02Z,2021,7,0,328.2917,328.2917,61.873,-66.652,1006.2,0.06,-999.0,yes,yes,no,300234068440210,BD2GHI,AOML,UNKNOWN,North
2021-11-24T07:59:57Z,2021,8,0,328.3333,328.3333,61.862,-66.598,1008.2,0.06,-999.0,yes,yes,no,300234068440210,BD2GHI,AOML,UNKNOWN,North
2021-11-24T09:00:00Z,2021,9,0,328.375,328.375,61.852,-66.555,1009.4,0.04,-999.0,yes,yes,no,300234068440210,BD2GHI,AOML,UNKNOWN,North
2021-11-24T10:01:03Z,2021,10,1,328.4174,328.4174,61.845,-66.534,1010.0,0.05,-999.0,yes,yes,no,300234068440210,BD2GHI,AOML,UNKNOWN,North
2021-11-24T11:00:57Z,2021,11,1,328.459,328.459,61.842,-66.538,1011.3,0.04,-999.0,yes,yes,no,300234068440210,BD2GHI,AOML,UNKNOWN,North
2021-11-24T12:00:00Z,2021,12,0,328.5,328.5,61.844,-66.572,1012.3,0.04,-999.0,yes,yes,no,300234068440210,BD2GHI,AOML,UNKNOWN,North
2021-11-24T13:03:04Z,2021,13,3,328.5438,328.5438,61.85,-66.621,1012.8,0.05,-999.0,yes,yes,no,300234068440210,BD2GHI,AOML,UNKNOWN,North
2021-11-24T14:03:59Z,2021,14,4,328.5861,328.5861,61.857,-66.674,1013.2,0.04,-999.0,yes,yes,no,300234068440210,BD2GHI,AOML,UNKNOWN,North
2021-11-24T15:00:00Z,2021,15,0,328.625,328.625,61.866,-66.707,1013.2,0.05,-999.0,yes,yes,no,300234068440210,BD2GHI,AOML,UNKNOWN,North
2021-11-24T16:00:02Z,2021,16,0,328.6667,328.6667,61.875,-66.729,1013.1,0.05,-999.0,yes,yes,no,300234068440210,BD2GHI,AOML,UNKNOWN,North
2021-11-24T16:59:57Z,2021,17,0,328.7083,328.7083,61.879,-66.735,1013.3,0.05,-999.0,yes,yes,no,300234068440210,BD2GHI,AOML,UNKNOWN,North
2021-11-24T18:04:01Z,2021,18,4,328.7528,328.7528,61.876,-66.718,1013.9,0.06,-999.0,yes,yes,no,300234068440210,BD2GHI,AOML,UNKNOWN,North
2021-11-24T19:02:03Z,2021,19,2,328.7931,328.7931,61.869,-66.685,1014.3,0.05,-999.0,yes,yes,no,300234068440210,BD2GHI,AOML,UNKNOWN,North
2021-11-24T19:59:57Z,2021,20,0,328.8333,328.8333,61.864,-66.648,1014.7,0.05,-999.0,yes,yes,no,300234068440210,BD2GHI,AOML,UNKNOWN,North
2021-11-24T21:00:00Z,2021,21,0,328.875,328.875,61.857,-66.61,1015.2,0.05,-999.0,yes,yes,no,300234068440210,BD2GHI,AOML,UNKNOWN,North
2021-11-24T22:00:02Z,2021,22,0,328.9167,328.9167,61.852,-66.585,1015.4,0.06,-999.0,yes,yes,no,300234068440210,BD2GHI,AOML,UNKNOWN,North
2021-11-24T23:00:57Z,2021,23,1,328.959,328.959,61.851,-66.582,1015.6,0.04,-999.0,yes,yes,no,300234068440210,BD2GHI,AOML,UNKNOWN,North
2021-11-25T00:01:00Z,2021,0,1,329.0007,329.0007,61.852,-66.604,1015.4,0.04,-999.0,yes,yes,no,300234068440210,BD2GHI,AOML,UNKNOWN,North
2021-11-25T01:03:56Z,2021,1,4,329.0444,329.0444,61.857,-66.642,1015.3,0.05,-999.0,yes,yes,no,300234068440210,BD2GHI,AOML,UNKNOWN,North
2021-11-25T02:00:57Z,2021,2,1,329.084,329.084,61.865,-66.682,1015.5,0.06,-999.0,yes,yes,no,300234068440210,BD2GHI,AOML,UNKNOWN,North
2021-11-25T03:00:00Z,2021,3,0,329.125,329.125,61.874,-66.718,1015.4,0.05,-999.0,yes,yes,no,300234068440210,BD2GHI,AOML,UNKNOWN,North
2021-11-25T04:00:02Z,2021,4,0,329.1667,329.1667,61.884,-66.742,1015.9,0.05,-999.0,yes,yes,no,300234068440210,BD2GHI,AOML,UNKNOWN,North
2021-11-25T05:00:57Z,2021,5,1,329.209,329.209,61.889,-66.748,1016.4,0.05,-999.0,yes,yes,no,300234068440210,BD2GHI,AOML,UNKNOWN,North
2021-11-25T06:03:01Z,2021,6,3,329.2521,329.2521,61.888,-66.734,1017.2,0.06,-999.0,yes,yes,no,300234068440210,BD2GHI,AOML,UNKNOWN,North
2021-11-25T07:03:56Z,2021,7,4,329.2944,329.2944,61.884,-66.714,1018.2,0.04,-999.0,yes,yes,no,300234068440210,BD2GHI,AOML,UNKNOWN,North
2021-11-25T07:59:57Z,2021,8,0,329.3333,329.3333,61.877,-66.678,1018.5,0.05,-999.0,yes,yes,no,300234068440210,BD2GHI,AOML,UNKNOWN,North
2021-11-25T09:00:00Z,2021,9,0,329.375,329.375,61.87,-66.643,1018.9,0.06,-999.0,yes,yes,no,300234068440210,BD2GHI,AOML,UNKNOWN,North
2021-11-25T10:03:56Z,2021,10,4,329.4194,329.4194,61.864,-66.622,1019.4,0.05,-999.0,yes,yes,no,300234068440210,BD2GHI,AOML,UNKNOWN,North
2021-11-25T11:03:59Z,2021,11,4,329.4611,329.4611,61.855,-66.603,1019.3,0.06,-999.0,yes,yes,no,300234068440210,BD2GHI,AOML,UNKNOWN,North
2021-11-25T12:04:01Z,2021,12,4,329.5028,329.5028,-90.0,-180.0,1019.7,0.05,-999.0,yes,yes,no,300234068440210,BD2GHI,AOML,UNKNOWN,North
2021-11-25T13:02:03Z,2021,13,2,329.5431,329.5431,61.867,-66.66,1019.5,0.05,-999.0,yes,yes,no,300234068440210,BD2GHI,AOML,UNKNOWN,North
2021-11-25T13:59:57Z,2021,14,0,329.5833,329.5833,61.876,-66.702,1019.2,0.05,-999.0,yes,yes,no,300234068440210,BD2GHI,AOML,UNKNOWN,North
2021-11-25T15:00:00Z,2021,15,0,329.625,329.625,61.888,-66.743,1018.7,0.05,-999.0,yes,yes,no,300234068440210,BD2GHI,AOML,UNKNOWN,North
2021-11-25T18:00:00Z,2021,18,0,329.75,329.75,61.912,-66.779,1018.4,0.05,-999.0,yes,yes,no,300234068440210,BD2GHI,AOML,UNKNOWN,North
2021-11-25T19:01:03Z,2021,19,1,329.7924,329.7924,61.908,-66.762,1018.7,0.03,-999.0,yes,yes,no,300234068440210,BD2GHI,AOML,UNKNOWN,North
2021-11-25T19:59:57Z,2021,20,0,329.8333,329.8333,61.901,-66.735,1018.9,0.03,-999.0,yes,yes,no,300234068440210,BD2GHI,AOML,UNKNOWN,North
2021-11-25T21:01:00Z,2021,21,1,329.8757,329.8757,61.892,-66.705,1018.9,0.0,-999.0,yes,yes,no,300234068440210,BD2GHI,AOML,UNKNOWN,North
2021-11-25T22:00:02Z,2021,22,0,329.9167,329.9167,61.883,-66.681,1018.8,-0.02,-999.0,yes,yes,no,300234068440210,BD2GHI,AOML,UNKNOWN,North
2021-11-25T22:59:57Z,2021,23,0,329.9583,329.9583,61.877,-66.674,1018.8,-0.08,-999.0,yes,yes,no,300234068440210,BD2GHI,AOML,UNKNOWN,North
2021-11-26T00:00:00Z,2021,0,0,330.0,330.0,61.873,-66.69,1018.0,-0.09,-999.0,yes,yes,no,300234068440210,BD2GHI,AOML,UNKNOWN,North
2021-11-26T01:01:03Z,2021,1,1,330.0424,330.0424,61.873,-66.714,1017.9,-0.08,-999.0,yes,yes,no,300234068440210,BD2GHI,AOML,UNKNOWN,North
2021-11-26T01:59:57Z,2021,2,0,330.0833,330.0833,61.878,-66.75,1017.3,-0.08,-999.0,yes,yes,no,300234068440210,BD2GHI,AOML,UNKNOWN,North
2021-11-26T03:00:00Z,2021,3,0,330.125,330.125,61.886,-66.787,1016.9,-0.09,-999.0,yes,yes,no,300234068440210,BD2GHI,AOML,UNKNOWN,North
2021-11-26T04:01:03Z,2021,4,1,330.1674,330.1674,61.893,-66.813,1016.5,-0.15,-999.0,yes,yes,no,300234068440210,BD2GHI,AOML,UNKNOWN,North
2021-11-26T04:59:57Z,2021,5,0,330.2083,330.2083,61.899,-66.826,1016.1,-0.19,-999.0,yes,yes,no,300234068440210,BD2GHI,AOML,UNKNOWN,North
2021-11-26T06:00:00Z,2021,6,0,330.25,330.25,61.9,-66.824,1016.1,-0.24,-999.0,yes,yes,no,300234068440210,BD2GHI,AOML,UNKNOWN,North
2021-11-26T07:00:02Z,2021,7,0,330.2917,330.2917,61.898,-66.807,1016.6,-0.22,-999.0,yes,yes,no,300234068440210,BD2GHI,AOML,UNKNOWN,North
2021-11-26T07:59:57Z,2021,8,0,330.3333,330.3333,61.893,-66.78,1016.6,-0.18,-999.0,yes,yes,no,300234068440210,BD2GHI,AOML,UNKNOWN,North
2021-11-26T09:02:00Z,2021,9,2,330.3764,330.3764,61.884,-66.744,1016.9,-0.16,-999.0,yes,yes,no,300234068440210,BD2GHI,AOML,UNKNOWN,North
2021-11-26T10:00:02Z,2021,10,0,330.4167,330.4167,61.875,-66.715,1016.9,-0.16,-999.0,yes,yes,no,300234068440210,BD2GHI,AOML,UNKNOWN,North
2021-11-26T10:59:57Z,2021,11,0,330.4583,330.4583,61.868,-66.696,1016.3,-0.13,-999.0,yes,yes,no,300234068440210,BD2GHI,AOML,UNKNOWN,North
2021-11-26T12:00:00Z,2021,12,0,330.5,330.5,61.866,-66.693,1016.6,-0.15,-999.0,yes,yes,no,300234068440210,BD2GHI,AOML,UNKNOWN,North
2021-11-26T13:00:02Z,2021,13,0,330.5417,330.5417,61.867,-66.707,1016.3,-0.15,-999.0,yes,yes,no,300234068440210,BD2GHI,AOML,UNKNOWN,North
2021-11-26T13:59:57Z,2021,14,0,330.5833,330.5833,61.874,-66.733,1016.4,-0.14,-999.0,yes,yes,no,300234068440210,BD2GHI,AOML,UNKNOWN,North
2021-11-26T15:00:00Z,2021,15,0,330.625,330.625,61.882,-66.763,1015.5,-0.16,-999.0,yes,yes,no,300234068440210,BD2GHI,AOML,UNKNOWN,North
2021-11-26T16:00:02Z,2021,16,0,330.6667,330.6667,61.891,-66.791,1015.1,-0.17,-999.0,yes,yes,no,300234068440210,BD2GHI,AOML,UNKNOWN,North
2021-11-26T16:59:57Z,2021,17,0,330.7083,330.7083,61.898,-66.811,1014.8,-0.21,-999.0,yes,yes,no,300234068440210,BD2GHI,AOML,UNKNOWN,North
2021-11-26T18:00:00Z,2021,18,0,330.75,330.75,61.904,-66.82,1014.5,-0.18,-999.0,yes,yes,no,300234068440210,BD2GHI,AOML,UNKNOWN,North
2021-11-26T19:00:02Z,2021,19,0,330.7917,330.7917,61.906,-66.814,1014.5,-0.17,-999.0,yes,yes,no,300234068440210,BD2GHI,AOML,UNKNOWN,North
2021-11-26T19:59:57Z,2021,20,0,330.8333,330.8333,61.904,-66.794,1014.4,-0.13,-999.0,yes,yes,no,300234068440210,BD2GHI,AOML,UNKNOWN,North
2021-11-26T21:00:00Z,2021,21,0,330.875,330.875,61.897,-66.767,1014.2,-0.12,-999.0,yes,yes,no,300234068440210,BD2GHI,AOML,UNKNOWN,North
2021-11-26T22:00:02Z,2021,22,0,330.9167,330.9167,61.89,-66.739,1014.1,-0.12,-999.0,yes,yes,no,300234068440210,BD2GHI,AOML,UNKNOWN,North
2021-11-26T23:00:57Z,2021,23,1,330.959,330.959,61.882,-66.722,1013.4,-0.13,-999.0,yes,yes,no,300234068440210,BD2GHI,AOML,UNKNOWN,North
2021-11-27T00:01:00Z,2021,0,1,331.0007,331.0007,61.876,-66.713,1013.0,-0.11,-999.0,yes,yes,no,300234068440210,BD2GHI,AOML,UNKNOWN,North
2021-11-27T01:00:02Z,2021,1,0,331.0417,331.0417,61.875,-66.725,1012.4,-0.12,-999.0,yes,yes,no,300234068440210,BD2GHI,AOML,UNKNOWN,North
2021-11-27T01:59:57Z,2021,2,0,331.0833,331.0833,61.876,-66.746,1012.0,-0.14,-999.0,yes,yes,no,300234068440210,BD2GHI,AOML,UNKNOWN,North
2021-11-27T03:00:00Z,2021,3,0,331.125,331.125,61.881,-66.775,1011.3,-0.16,-999.0,yes,yes,no,300234068440210,BD2GHI,AOML,UNKNOWN,North
2021-11-27T04:00:02Z,2021,4,0,331.1667,331.1667,61.889,-66.804,1010.6,-0.16,-999.0,yes,yes,no,300234068440210,BD2GHI,AOML,UNKNOWN,North
2021-11-27T04:59:57Z,2021,5,0,331.2083,331.2083,61.895,-66.827,1010.4,-0.18,-999.0,yes,yes,no,300234068440210,BD2GHI,AOML,UNKNOWN,North
2021-11-27T06:00:00Z,2021,6,0,331.25,331.25,61.9,-66.841,1010.0,-0.18,-999.0,yes,yes,no,300234068440210,BD2GHI,AOML,UNKNOWN,North
2021-11-27T07:00:02Z,2021,7,0,331.2917,331.2917,61.904,-66.843,1009.9,-0.19,-999.0,yes,yes,no,300234068440210,BD2GHI,AOML,UNKNOWN,North
2021-11-27T07:59:57Z,2021,8,0,331.3333,331.3333,61.902,-66.832,1009.3,-0.2,-999.0,yes,yes,no,300234068440210,BD2GHI,AOML,UNKNOWN,North
2021-11-27T09:00:00Z,2021,9,0,331.375,331.375,61.898,-66.814,1009.2,-0.2,-999.0,yes,yes,no,300234068440210,BD2GHI,AOML,UNKNOWN,North
2021-11-27T10:00:02Z,2021,10,0,331.4167,331.4167,61.893,-66.791,1009.0,-0.19,-999.0,yes,yes,no,300234068440210,BD2GHI,AOML,UNKNOWN,North
2021-11-27T13:00:02Z,2021,13,0,331.5417,331.5417,61.88,-66.764,1006.4,-0.21,-999.0,yes,yes,no,300234068440210,BD2GHI,AOML,UNKNOWN,North
2021-11-27T13:59:57Z,2021,14,0,331.5833,331.5833,61.88,-66.778,1005.3,-0.23,-999.0,yes,yes,no,300234068440210,BD2GHI,AOML,UNKNOWN,North
2021-11-27T15:02:00Z,2021,15,2,331.6264,331.6264,61.881,-66.803,1004.6,-0.23,-999.0,yes,yes,no,300234068440210,BD2GHI,AOML,UNKNOWN,North
2021-11-27T16:00:02Z,2021,16,0,331.6667,331.6667,61.885,-66.833,1003.7,-0.23,-999.0,yes,yes,no,300234068440210,BD2GHI,AOML,UNKNOWN,North
2021-11-27T16:59:57Z,2021,17,0,331.7083,331.7083,61.888,-66.863,1002.8,-0.23,-999.0,yes,yes,no,300234068440210,BD2GHI,AOML,UNKNOWN,North
2021-11-27T18:00:00Z,2021,18,0,331.75,331.75,61.891,-66.888,1002.3,-0.2,-999.0,yes,yes,no,300234068440210,BD2GHI,AOML,UNKNOWN,North
2021-11-27T19:00:02Z,2021,19,0,331.7917,331.7917,61.895,-66.902,1002.2,-0.2,-999.0,yes,yes,no,300234068440210,BD2GHI,AOML,UNKNOWN,North
2021-11-27T19:59:57Z,2021,20,0,331.8333,331.8333,61.896,-66.904,1002.0,-0.21,-999.0,yes,yes,no,300234068440210,BD2GHI,AOML,UNKNOWN,North
2021-11-27T21:00:00Z,2021,21,0,331.875,331.875,61.895,-66.893,1001.9,-0.2,-999.0,yes,yes,no,300234068440210,BD2GHI,AOML,UNKNOWN,North
2021-11-27T22:00:02Z,2021,22,0,331.9167,331.9167,61.896,-66.871,1001.6,-0.2,-999.0,yes,yes,no,300234068440210,BD2GHI,AOML,UNKNOWN,North
2021-11-27T23:01:58Z,2021,23,2,331.9597,331.9597,61.889,-66.854,1001.4,-0.2,-999.0,yes,yes,no,300234068440210,BD2GHI,AOML,UNKNOWN,North
2021-11-28T00:00:00Z,2021,0,0,332.0,332.0,61.886,-66.837,1001.6,-0.2,-999.0,yes,yes,no,300234068440210,BD2GHI,AOML,UNKNOWN,North
2021-11-28T01:00:02Z,2021,1,0,332.0417,332.0417,61.883,-66.828,1001.0,-0.19,-999.0,yes,yes,no,300234068440210,BD2GHI,AOML,UNKNOWN,North
2021-11-28T02:02:58Z,2021,2,3,332.0854,332.0854,61.881,-66.831,1000.9,-0.2,-999.0,yes,yes,no,300234068440210,BD2GHI,AOML,UNKNOWN,North
2021-11-28T03:00:00Z,2021,3,0,332.125,332.125,61.882,-66.845,1000.1,-0.2,-999.0,yes,yes,no,300234068440210,BD2GHI,AOML,UNKNOWN,North
2021-11-28T04:00:02Z,2021,4,0,332.1667,332.1667,61.884,-66.869,999.4,-0.21,-999.0,yes,yes,no,300234068440210,BD2GHI,AOML,UNKNOWN,North
2021-11-28T04:59:57Z,2021,5,0,332.2083,332.2083,61.886,-66.897,999.3,-0.21,-999.0,yes,yes,no,300234068440210,BD2GHI,AOML,UNKNOWN,North
2021-11-28T06:00:00Z,2021,6,0,332.25,332.25,61.888,-66.924,999.2,-0.18,-999.0,yes,yes,no,300234068440210,BD2GHI,AOML,UNKNOWN,North
2021-11-28T07:00:02Z,2021,7,0,332.2917,332.2917,61.891,-66.945,998.6,-0.19,-999.0,yes,yes,no,300234068440210,BD2GHI,AOML,UNKNOWN,North
2021-11-28T07:59:57Z,2021,8,0,332.3333,332.3333,61.892,-66.958,998.5,-0.18,-999.0,yes,yes,no,300234068440210,BD2GHI,AOML,UNKNOWN,North
2021-11-28T09:00:00Z,2021,9,0,332.375,332.375,61.89,-66.964,998.2,-0.18,-999.0,yes,yes,no,300234068440210,BD2GHI,AOML,UNKNOWN,North
2021-11-28T10:00:02Z,2021,10,0,332.4167,332.4167,61.89,-66.962,997.4,-0.17,-999.0,yes,yes,no,300234068440210,BD2GHI,AOML,UNKNOWN,North
2021-11-28T10:59:57Z,2021,11,0,332.4583,332.4583,61.889,-66.954,997.3,-0.16,-999.0,yes,yes,no,300234068440210,BD2GHI,AOML,UNKNOWN,North
2021-11-28T12:00:00Z,2021,12,0,332.5,332.5,61.89,-66.943,996.5,-0.15,-999.0,yes,yes,no,300234068440210,BD2GHI,AOML,UNKNOWN,North
2021-11-28T13:03:56Z,2021,13,4,332.5444,332.5444,-90.0,-180.0,995.3,-0.15,-999.0,yes,yes,no,300234068440210,BD2GHI,AOML,UNKNOWN,North
2021-11-28T14:03:59Z,2021,14,4,332.5861,332.5861,-90.0,-180.0,994.4,-0.13,-999.0,yes,yes,no,300234068440210,BD2GHI,AOML,UNKNOWN,North
2021-11-28T15:04:01Z,2021,15,4,332.6278,332.6278,-90.0,-180.0,992.3,-0.11,-999.0,yes,yes,no,300234068440210,BD2GHI,AOML,UNKNOWN,North
2021-11-28T16:03:56Z,2021,16,4,332.6694,332.6694,61.896,-66.973,991.3,-0.11,-999.0,yes,yes,no,300234068440210,BD2GHI,AOML,UNKNOWN,North
2021-11-28T16:59:57Z,2021,17,0,332.7083,332.7083,61.901,-67.001,990.3,-0.11,-999.0,yes,yes,no,300234068440210,BD2GHI,AOML,UNKNOWN,North
2021-11-28T19:01:03Z,2021,19,1,332.7924,332.7924,61.911,-67.06,989.4,-0.1,-999.0,yes,yes,no,300234068440210,BD2GHI,AOML,UNKNOWN,North
2021-11-28T19:59:57Z,2021,20,0,332.8333,332.8333,61.915,-67.08,989.0,-0.1,-999.0,yes,yes,no,300234068440210,BD2GHI,AOML,UNKNOWN,North
2021-11-28T21:00:00Z,2021,21,0,332.875,332.875,61.919,-67.09,988.1,-0.1,-999.0,yes,yes,no,300234068440210,BD2GHI,AOML,UNKNOWN,North
2021-11-28T22:03:56Z,2021,22,4,332.9194,332.9194,-90.0,-180.0,987.6,-0.11,-999.0,yes,yes,no,300234068440210,BD2GHI,AOML,UNKNOWN,North
2021-11-28T23:01:58Z,2021,23,2,332.9597,332.9597,61.919,-67.076,987.2,-0.12,-999.0,yes,yes,no,300234068440210,BD2GHI,AOML,UNKNOWN,North
2021-11-29T00:00:00Z,2021,0,0,333.0,333.0,61.917,-67.059,986.8,-0.13,-999.0,yes,yes,no,300234068440210,BD2GHI,AOML,UNKNOWN,North
2021-11-29T01:00:02Z,2021,1,0,333.0417,333.0417,61.913,-67.041,986.4,-0.12,-999.0,yes,yes,no,300234068440210,BD2GHI,AOML,UNKNOWN,North
2021-11-29T01:59:57Z,2021,2,0,333.0833,333.0833,61.909,-67.03,985.5,-0.13,-999.0,yes,yes,no,300234068440210,BD2GHI,AOML,UNKNOWN,North
2021-11-29T03:00:00Z,2021,3,0,333.125,333.125,61.905,-67.03,985.1,-0.14,-999.0,yes,yes,no,300234068440210,BD2GHI,AOML,UNKNOWN,North
2021-11-29T04:00:02Z,2021,4,0,333.1667,333.1667,61.905,-67.039,984.8,-0.16,-999.0,yes,yes,no,300234068440210,BD2GHI,AOML,UNKNOWN,North
2021-11-29T04:59:57Z,2021,5,0,333.2083,333.2083,61.904,-67.058,984.6,-0.16,-999.0,yes,yes,no,300234068440210,BD2GHI,AOML,UNKNOWN,North
2021-11-29T06:00:00Z,2021,6,0,333.25,333.25,61.906,-67.08,984.6,-0.17,-999.0,yes,yes,no,300234068440210,BD2GHI,AOML,UNKNOWN,North
2021-11-29T07:00:02Z,2021,7,0,333.2917,333.2917,61.909,-67.102,984.8,-0.17,-999.0,yes,yes,no,300234068440210,BD2GHI,AOML,UNKNOWN,North
2021-11-29T07:59:57Z,2021,8,0,333.3333,333.3333,61.909,-67.122,985.1,-0.18,-999.0,yes,yes,no,300234068440210,BD2GHI,AOML,UNKNOWN,North
2021-11-29T09:00:00Z,2021,9,0,333.375,333.375,61.911,-67.129,985.3,-0.19,-999.0,yes,yes,no,300234068440210,BD2GHI,AOML,UNKNOWN,North
2021-11-29T10:00:02Z,2021,10,0,333.4167,333.4167,61.912,-67.127,986.0,-0.19,-999.0,yes,yes,no,300234068440210,BD2GHI,AOML,UNKNOWN,North
2021-11-29T10:59:57Z,2021,11,0,333.4583,333.4583,61.91,-67.112,986.6,-0.2,-999.0,yes,yes,no,300234068440210,BD2GHI,AOML,UNKNOWN,North
2021-11-29T13:00:02Z,2021,13,0,333.5417,333.5417,61.907,-67.061,987.9,-0.21,-999.0,yes,yes,no,300234068440210,BD2GHI,AOML,UNKNOWN,North
2021-11-29T13:59:57Z,2021,14,0,333.5833,333.5833,61.904,-67.037,988.4,-0.21,-999.0,yes,yes,no,300234068440210,BD2GHI,AOML,UNKNOWN,North
2021-11-29T15:00:00Z,2021,15,0,333.625,333.625,61.901,-67.023,989.0,-0.21,-999.0,yes,yes,no,300234068440210,BD2GHI,AOML,UNKNOWN,North
2021-11-29T16:00:02Z,2021,16,0,333.6667,333.6667,61.901,-67.023,989.4,-0.2,-999.0,yes,yes,no,300234068440210,BD2GHI,AOML,UNKNOWN,North
2021-11-29T16:59:57Z,2021,17,0,333.7083,333.7083,61.902,-67.035,990.0,-0.19,-999.0,yes,yes,no,300234068440210,BD2GHI,AOML,UNKNOWN,North
2021-11-29T18:00:00Z,2021,18,0,333.75,333.75,61.905,-67.057,990.5,-0.18,-999.0,yes,yes,no,300234068440210,BD2GHI,AOML,UNKNOWN,North
2021-11-29T19:00:02Z,2021,19,0,333.7917,333.7917,61.91,-67.085,991.4,-0.19,-999.0,yes,yes,no,300234068440210,BD2GHI,AOML,UNKNOWN,North
2021-11-29T19:59:57Z,2021,20,0,333.8333,333.8333,61.916,-67.113,992.4,-0.19,-999.0,yes,yes,no,300234068440210,BD2GHI,AOML,UNKNOWN,North
2021-11-29T21:00:00Z,2021,21,0,333.875,333.875,61.923,-67.135,993.1,-0.21,-999.0,yes,yes,no,300234068440210,BD2GHI,AOML,UNKNOWN,North
2021-11-29T22:00:02Z,2021,22,0,333.9167,333.9167,61.927,-67.145,994.1,-0.22,-999.0,yes,yes,no,300234068440210,BD2GHI,AOML,UNKNOWN,North
2021-11-29T22:59:57Z,2021,23,0,333.9583,333.9583,61.929,-67.142,995.2,-0.25,-999.0,yes,yes,no,300234068440210,BD2GHI,AOML,UNKNOWN,North
2021-11-30T00:00:00Z,2021,0,0,334.0,334.0,61.928,-67.127,996.3,-0.22,-999.0,yes,yes,no,300234068440210,BD2GHI,AOML,UNKNOWN,North
2021-11-30T01:00:02Z,2021,1,0,334.0417,334.0417,61.925,-67.103,997.4,-0.23,-999.0,yes,yes,no,300234068440210,BD2GHI,AOML,UNKNOWN,North
2021-11-30T02:02:58Z,2021,2,3,334.0854,334.0854,61.918,-67.077,998.4,-0.2,-999.0,yes,yes,no,300234068440210,BD2GHI,AOML,UNKNOWN,North
2021-11-30T03:00:00Z,2021,3,0,334.125,334.125,61.913,-67.06,999.4,-0.22,-999.0,yes,yes,no,300234068440210,BD2GHI,AOML,UNKNOWN,North
2021-11-30T04:00:02Z,2021,4,0,334.1667,334.1667,61.909,-67.051,1000.5,-0.21,-999.0,yes,yes,no,300234068440210,BD2GHI,AOML,UNKNOWN,North
2021-11-30T04:59:57Z,2021,5,0,334.2083,334.2083,61.908,-67.055,1001.3,-0.2,-999.0,yes,yes,no,300234068440210,BD2GHI,AOML,UNKNOWN,North
2021-11-30T06:01:00Z,2021,6,1,334.2507,334.2507,61.908,-67.072,1001.7,-0.21,-999.0,yes,yes,no,300234068440210,BD2GHI,AOML,UNKNOWN,North
2021-11-30T07:00:02Z,2021,7,0,334.2917,334.2917,61.912,-67.1,1002.2,-0.2,-999.0,yes,yes,no,300234068440210,BD2GHI,AOML,UNKNOWN,North
2021-11-30T08:00:57Z,2021,8,1,334.334,334.334,61.916,-67.135,1002.7,-0.2,-999.0,yes,yes,no,300234068440210,BD2GHI,AOML,UNKNOWN,North
2021-11-30T09:00:00Z,2021,9,0,334.375,334.375,61.922,-67.16,1003.6,-0.22,-999.0,yes,yes,no,300234068440210,BD2GHI,AOML,UNKNOWN,North
2021-11-30T10:00:02Z,2021,10,0,334.4167,334.4167,61.928,-67.181,1004.5,-0.21,-999.0,yes,yes,no,300234068440210,BD2GHI,AOML,UNKNOWN,North
2021-11-30T10:59:57Z,2021,11,0,334.4583,334.4583,61.931,-67.183,1005.4,-0.21,-999.0,yes,yes,no,300234068440210,BD2GHI,AOML,UNKNOWN,North
2021-11-30T12:01:00Z,2021,12,1,334.5007,334.5007,61.933,-67.176,1005.4,-0.24,-999.0,yes,yes,no,300234068440210,BD2GHI,AOML,UNKNOWN,North
2021-11-30T13:00:02Z,2021,13,0,334.5417,334.5417,61.933,-67.158,1006.1,-0.27,-999.0,yes,yes,no,300234068440210,BD2GHI,AOML,UNKNOWN,North
2021-11-30T14:02:58Z,2021,14,3,334.5854,334.5854,61.931,-67.13,1006.7,-0.27,-999.0,yes,yes,no,300234068440210,BD2GHI,AOML,UNKNOWN,North
2021-11-30T15:00:00Z,2021,15,0,334.625,334.625,61.929,-67.106,1006.7,-0.32,-999.0,yes,yes,no,300234068440210,BD2GHI,AOML,UNKNOWN,North
2021-11-30T16:00:02Z,2021,16,0,334.6667,334.6667,61.928,-67.091,1006.3,-0.3,-999.0,yes,yes,no,300234068440210,BD2GHI,AOML,UNKNOWN,North
2021-11-30T16:59:57Z,2021,17,0,334.7083,334.7083,61.929,-67.093,1005.7,-0.34,-999.0,yes,yes,no,300234068440210,BD2GHI,AOML,UNKNOWN,North
2021-11-30T18:00:00Z,2021,18,0,334.75,334.75,61.93,-67.107,1005.5,-0.34,-999.0,yes,yes,no,300234068440210,BD2GHI,AOML,UNKNOWN,North
2021-11-30T19:00:02Z,2021,19,0,334.7917,334.7917,61.934,-67.137,1005.2,-0.39,-999.0,yes,yes,no,300234068440210,BD2GHI,AOML,UNKNOWN,North
2021-11-30T19:59:57Z,2021,20,0,334.8333,334.8333,61.94,-67.174,1005.1,-0.3,-999.0,yes,yes,no,300234068440210,BD2GHI,AOML,UNKNOWN,North
2021-11-30T21:00:00Z,2021,21,0,334.875,334.875,61.946,-67.214,1004.4,-0.31,-999.0,yes,yes,no,300234068440210,BD2GHI,AOML,UNKNOWN,North
2021-11-30T22:00:02Z,2021,22,0,334.9167,334.9167,61.952,-67.241,1004.2,-0.31,-999.0,yes,yes,no,300234068440210,BD2GHI,AOML,UNKNOWN,North
2021-11-30T22:59:57Z,2021,23,0,334.9583,334.9583,61.96,-67.259,1003.6,-0.32,-999.0,yes,yes,no,300234068440210,BD2GHI,AOML,UNKNOWN,North
2021-12-01T00:00:00Z,2021,0,0,335.0,335.0,61.961,-67.259,1003.2,-0.3,-999.0,yes,yes,no,300234068440210,BD2GHI,AOML,UNKNOWN,North
2021-12-01T01:00:02Z,2021,1,0,335.0417,335.0417,61.959,-67.243,1002.0,-0.25,-999.0,yes,yes,no,300234068440210,BD2GHI,AOML,UNKNOWN,North
2021-12-01T01:59:57Z,2021,2,0,335.0833,335.0833,61.955,-67.22,1000.9,-0.27,-999.0,yes,yes,no,300234068440210,BD2GHI,AOML,UNKNOWN,North
2021-12-01T03:00:00Z,2021,3,0,335.125,335.125,61.951,-67.197,999.4,-0.22,-999.0,yes,yes,no,300234068440210,BD2GHI,AOML,UNKNOWN,North
2021-12-01T04:00:02Z,2021,4,0,335.1667,335.1667,61.948,-67.183,998.3,-0.29,-999.0,yes,yes,no,300234068440210,BD2GHI,AOML,UNKNOWN,North
2021-12-01T04:59:57Z,2021,5,0,335.2083,335.2083,61.947,-67.182,997.2,-0.3,-999.0,yes,yes,no,300234068440210,BD2GHI,AOML,UNKNOWN,North
2021-12-01T06:00:00Z,2021,6,0,335.25,335.25,61.946,-67.197,996.1,-0.29,-999.0,yes,yes,no,300234068440210,BD2GHI,AOML,UNKNOWN,North